When you browse on this site, cookies collect data to enhance your experience and personalize the content and advertising you see.
Visit our Privacy Policy to learn more. By continuing to use the site, you agree to this use of cookies and data.
  • en Suisse
  • Liste des pays
  • À 7 jours
  • Température de l'eau
  • Carte satellitaire
  • Carte météo
  • Widgets météo
  • user-avatar
    Se connecter

    Météo par heure à Serebryanytsya

    Ce jour, 13 Décembre, Jeudi

    Heure Température Précipitation Vent Pression Humidité
    00:00 -2°C° 0.1 mm 4 m/s 745 mmHg 92%
    01:00 -2°C° 0.1 mm 4 m/s 746 mmHg 91%
    02:00 -2°C° 0 mm 4 m/s 745 mmHg 92%
    03:00 -2°C° 0.2 mm 4 m/s 745 mmHg 91%
    04:00 -2°C° 0.2 mm 4 m/s 745 mmHg 91%
    05:00 -2°C° 0.2 mm 4 m/s 745 mmHg 90%
    06:00 -2°C° 0.2 mm 4 m/s 745 mmHg 89%
    07:00 -2°C° 0.2 mm 5 m/s 745 mmHg 89%
    08:00 -2°C° 0.2 mm 5 m/s 745 mmHg 88%
    09:00 -2°C° 0.1 mm 5 m/s 745 mmHg 87%
    10:00 -2°C° 0.1 mm 5 m/s 745 mmHg 86%
    11:00 -2°C° 0.1 mm 5 m/s 745 mmHg 85%
    12:00 -2°C° 0.2 mm 5 m/s 745 mmHg 84%
    13:00 -2°C° 0.2 mm 5 m/s 745 mmHg 84%
    14:00 -2°C° 0.2 mm 5 m/s 746 mmHg 84%
    15:00 -2°C° 0.2 mm 5 m/s 746 mmHg 85%
    16:00 -2°C° 0.2 mm 4 m/s 746 mmHg 86%
    17:00 -3°C° 0.2 mm 4 m/s 746 mmHg 88%
    18:00 -3°C° 0.1 mm 4 m/s 746 mmHg 88%
    19:00 -3°C° 0.1 mm 4 m/s 746 mmHg 88%
    20:00 -3°C° 0.1 mm 4 m/s 746 mmHg 89%
    21:00 -3°C° 0.1 mm 4 m/s 746 mmHg 89%
    22:00 -3°C° 0.1 mm 4 m/s 746 mmHg 89%
    23:00 -3°C° 0.1 mm 4 m/s 746 mmHg 90%

    Demain, 14 Décembre, Vendredi

    Heure Température Précipitation Vent Pression Humidité
    00:00 -3°C° 0.2 mm 4 m/s 747 mmHg 91%
    01:00 -3°C° 0.2 mm 4 m/s 747 mmHg 91%
    02:00 -2°C° 0.2 mm 3 m/s 747 mmHg 92%
    03:00 -2°C° 0.1 mm 3 m/s 747 mmHg 92%
    04:00 -2°C° 0.1 mm 3 m/s 747 mmHg 92%
    05:00 -2°C° 0.1 mm 3 m/s 748 mmHg 92%
    06:00 -2°C° 0.1 mm 3 m/s 748 mmHg 93%
    07:00 -2°C° 0.1 mm 3 m/s 748 mmHg 93%
    08:00 -2°C° 0.1 mm 2 m/s 748 mmHg 94%
    09:00 -1°C° 0 mm 2 m/s 749 mmHg 93%
    10:00 -1°C° 0 mm 2 m/s 749 mmHg 93%
    11:00 -1°C° 0 mm 2 m/s 749 mmHg 92%
    12:00 -1°C° 0 mm 2 m/s 750 mmHg 91%
    13:00 -1°C° 0 mm 2 m/s 750 mmHg 90%
    14:00 +1°C° 0 mm 2 m/s 750 mmHg 89%
    15:00 -1°C° 0 mm 2 m/s 750 mmHg 90%
    16:00 -1°C° 0 mm 2 m/s 750 mmHg 91%
    17:00 -2°C° 0 mm 2 m/s 751 mmHg 91%
    18:00 -2°C° 0 mm 2 m/s 751 mmHg 91%
    19:00 -2°C° 0 mm 2 m/s 751 mmHg 90%
    20:00 -2°C° 0 mm 2 m/s 751 mmHg 90%
    21:00 -2°C° 0 mm 2 m/s 752 mmHg 90%
    22:00 -2°C° 0 mm 2 m/s 752 mmHg 91%
    23:00 -2°C° 0 mm 2 m/s 752 mmHg 91%

    Après-demain, 15 Décembre, Samedi

    Heure Température Précipitation Vent Pression Humidité
    00:00 -2°C° 0 mm 2 m/s 752 mmHg 92%
    01:00 -3°C° 0 mm 2 m/s 752 mmHg 92%
    02:00 -3°C° 0 mm 2 m/s 752 mmHg 93%
    03:00 -3°C° 0 mm 2 m/s 752 mmHg 93%
    04:00 -3°C° 0 mm 2 m/s 752 mmHg 93%
    05:00 -3°C° 0 mm 2 m/s 752 mmHg 94%
    06:00 -3°C° 0 mm 2 m/s 753 mmHg 94%
    07:00 -4°C° 0 mm 3 m/s 753 mmHg 94%
    08:00 -4°C° 0 mm 3 m/s 753 mmHg 94%
    09:00 -4°C° 0 mm 3 m/s 753 mmHg 92%
    10:00 -2°C° 0 mm 3 m/s 753 mmHg 89%
    11:00 -3°C° 0 mm 4 m/s 753 mmHg 87%
    12:00 -3°C° 0 mm 4 m/s 753 mmHg 86%
    13:00 -3°C° 0 mm 4 m/s 753 mmHg 85%
    14:00 -3°C° 0 mm 4 m/s 753 mmHg 85%
    15:00 -3°C° 0.1 mm 4 m/s 753 mmHg 86%
    16:00 -3°C° 0.1 mm 4 m/s 753 mmHg 87%
    17:00 -3°C° 0.1 mm 4 m/s 753 mmHg 88%
    18:00 -3°C° 0 mm 4 m/s 753 mmHg 88%
    19:00 -3°C° 0 mm 4 m/s 752 mmHg 88%
    20:00 -3°C° 0 mm 4 m/s 752 mmHg 89%
    21:00 -5°C° 0 mm 5 m/s 752 mmHg 89%
    22:00 -5°C° 0 mm 5 m/s 752 mmHg 89%
    23:00 -5°C° 0 mm 5 m/s 752 mmHg 89%

    16 Décembre, Dimanche

    Heure Température Précipitation Vent Pression Humidité
    00:00 -5°C° 0.1 mm 5 m/s 751 mmHg 89%
    01:00 -5°C° 0.1 mm 5 m/s 751 mmHg 89%
    02:00 -5°C° 0.1 mm 5 m/s 751 mmHg 88%
    03:00 -5°C° 0.4 mm 6 m/s 750 mmHg 89%
    04:00 -5°C° 0.4 mm 6 m/s 750 mmHg 90%
    05:00 -5°C° 0.4 mm 6 m/s 749 mmHg 90%
    06:00 -5°C° 0.7 mm 6 m/s 749 mmHg 91%
    07:00 -5°C° 0.7 mm 6 m/s 748 mmHg 92%
    08:00 -5°C° 0.7 mm 6 m/s 748 mmHg 92%
    09:00 -5°C° 0.7 mm 6 m/s 748 mmHg 92%
    10:00 -4°C° 0.7 mm 6 m/s 748 mmHg 93%
    11:00 -4°C° 0.7 mm 6 m/s 747 mmHg 93%
    12:00 -2°C° 0.5 mm 5 m/s 747 mmHg 93%
    13:00 -2°C° 0.5 mm 5 m/s 747 mmHg 93%
    14:00 -2°C° 0.5 mm 5 m/s 746 mmHg 93%
    15:00 -2°C° 0.4 mm 5 m/s 746 mmHg 93%
    16:00 -1°C° 0.4 mm 4 m/s 746 mmHg 94%
    17:00 -1°C° 0.4 mm 4 m/s 746 mmHg 95%
    18:00 -1°C° 0.4 mm 4 m/s 746 mmHg 96%
    19:00 -1°C° 0.4 mm 4 m/s 746 mmHg 96%
    20:00 -1°C° 0.4 mm 4 m/s 747 mmHg 97%
    21:00 -1°C° 0.6 mm 4 m/s 747 mmHg 97%
    22:00 -1°C° 0.6 mm 4 m/s 747 mmHg 97%
    23:00 -1°C° 0.6 mm 4 m/s 747 mmHg 97%

    17 Décembre, Lundi

    Heure Température Précipitation Vent Pression Humidité
    00:00 -1°C° 0.5 mm 3 m/s 747 mmHg 97%
    01:00 -1°C° 0.5 mm 3 m/s 747 mmHg 96%
    02:00 -1°C° 0.5 mm 2 m/s 748 mmHg 96%
    03:00 -1°C° 0.6 mm 2 m/s 748 mmHg 96%
    04:00 -2°C° 0.6 mm 2 m/s 748 mmHg 96%
    05:00 0°C° 0.6 mm 1 m/s 748 mmHg 96%
    06:00 0°C° 0.4 mm 1 m/s 748 mmHg 96%
    07:00 0°C° 0.4 mm 1 m/s 748 mmHg 96%
    08:00 0°C° 0.4 mm 1 m/s 748 mmHg 95%
    09:00 0°C° 0.3 mm 1 m/s 748 mmHg 95%
    10:00 0°C° 0.3 mm 1 m/s 749 mmHg 95%
    11:00 0°C° 0.3 mm 1 m/s 749 mmHg 95%
    12:00 0°C° 0.2 mm 1 m/s 749 mmHg 95%
    13:00 0°C° 0.2 mm 1 m/s 749 mmHg 96%
    14:00 +1°C° 0.2 mm 1 m/s 749 mmHg 96%
    15:00 0°C° 0.2 mm 1 m/s 749 mmHg 96%
    16:00 0°C° 0.2 mm 1 m/s 749 mmHg 96%
    17:00 0°C° 0.2 mm 1 m/s 749 mmHg 96%
    18:00 0°C° 0.2 mm 1 m/s 749 mmHg 96%
    19:00 -1°C° 0.2 mm 1 m/s 750 mmHg 96%
    20:00 -1°C° 0.2 mm 1 m/s 750 mmHg 96%
    21:00 -1°C° 0.2 mm 1 m/s 750 mmHg 97%
    22:00 -1°C° 0.2 mm 1 m/s 750 mmHg 97%
    23:00 -1°C° 0.2 mm 1 m/s 750 mmHg 97%

    18 Décembre, Mardi

    Heure Température Précipitation Vent Pression Humidité
    00:00 -1°C° 0.3 mm 1 m/s 750 mmHg 97%
    01:00 -1°C° 0.3 mm 1 m/s 750 mmHg 97%
    02:00 -1°C° 0.3 mm 1 m/s 750 mmHg 97%
    03:00 -1°C° 0.3 mm 1 m/s 750 mmHg 97%
    04:00 -1°C° 0.3 mm 1 m/s 750 mmHg 97%
    05:00 -1°C° 0.3 mm 1 m/s 750 mmHg 97%
    06:00 -1°C° 0.2 mm 1 m/s 750 mmHg 97%
    07:00 -2°C° 0.2 mm 1 m/s 750 mmHg 97%
    08:00 -2°C° 0.2 mm 1 m/s 750 mmHg 97%
    09:00 -2°C° 0.1 mm 1 m/s 751 mmHg 96%
    10:00 -1°C° 0.1 mm 1 m/s 751 mmHg 96%
    11:00 -3°C° 0.1 mm 2 m/s 751 mmHg 95%
    12:00 -1°C° 0.2 mm 1 m/s 751 mmHg 95%
    13:00 -1°C° 0.2 mm 1 m/s 751 mmHg 95%
    14:00 -1°C° 0.2 mm 1 m/s 750 mmHg 95%
    15:00 -1°C° 0.3 mm 1 m/s 750 mmHg 95%
    16:00 -3°C° 0.3 mm 2 m/s 750 mmHg 96%
    17:00 -4°C° 0.3 mm 2 m/s 750 mmHg 97%
    18:00 -4°C° 0.3 mm 2 m/s 750 mmHg 97%
    19:00 -4°C° 0.3 mm 2 m/s 750 mmHg 97%
    20:00 -4°C° 0.3 mm 2 m/s 750 mmHg 97%
    21:00 -5°C° 0.2 mm 2 m/s 750 mmHg 97%
    22:00 -5°C° 0.2 mm 2 m/s 750 mmHg 97%
    23:00 -3°C° 0.2 mm 1 m/s 750 mmHg 97%
    Voir plus